Location: Quedlinburg
(51.7921°N, 11.1414°E)
Time: 05:53:50
(UTC+02:00)

BEESAT - Pass Details

Date: 24 March 2026
Orbit: 683 x 693 km, 98.4° (Epoch: 17 April)

Event Time Altitude Azimuth Distance (km) Brightness Sun altitude
Rises 01:53:49 0° 2° (N) 3,064 ? -33.4°
Reaches altitude 10° 01:57:11 10° 336° (NNW) 2,142 ? -33.2°
Enters shadow 01:58:09 12° 325° (NW) 1,996 ? -33.1°
